FALCON 9 DEB (49776 NORAD) Tracking and Keplerian Element Data

This shows tracking and keplerian element data for the satellite.

Feedback or suggestion? Click here.




ElementValue
Catalog49776
NameFALCON 9 DEB
Epoch Orbit2623
Epoch Day140.54590717
Epoch Year2022
RAAN236.035
Inclination53.2073
Eccentricity0.001334
Argument of Perigee98.8532
Mean Anonmoly261.3989
Mean Motion15.49557048
Decay Rate0.00033573
L11 49776U 21115BE 22140.54590717 .00033573 00000+0 60194-3 0 9993
L22 49776 53.2073 236.0350 0013340 98.8532 261.3989 15.49557048 26239

Live tracking and technical data element details for FALCON 9 DEB (NORAD 49776). FALCON 9 DEB can be tracked NOW for your location showing map with azimuth and elevation plus other details from your city location.

Track the satellite on the map from your city or location and see movement details for azimuth, elevation, latitude, longitude, range, height, and movement on the map or in text.







IsCatalogInMostPopularTable: catalog: 49776, numindb: 21
Update: records affected: 1



GetName: 49776 FALCON 9 DEB

Hit Count: updated at: Mon, 23 May 2022 19:56:03 GMT